Torna al catalogo

STARLINK-4579

AttivoComunicazioniSSO
NORAD 53677·PAYLOAD·🇺🇸 United States

Lanciato Aug 31, 2022 da Vandenberg Space Force Base

Loading…

Prossimi Passaggi (prossime 24 ore)

TLE

AggiornatoSource: CelesTrak SupGP

Epoca: Sep 14, 2026, 21:39 UTC

1 53677C 22105AF  26257.90256944 -.00011611  00000+0 -36061-3 0  2576
2 53677  97.2841 134.6896 0001609  88.5608 171.9974 15.33428589    16

Traccia STARLINK-4579 in tempo reale con AllMySat

Download on the App Store